Overview Statistics Trail Chart Weather Telemetry Raw packets
 

This is the latest recevied weather packets stored in our database for station/object KD4EG. If no packets are shown the sender has not sent any weather packets the latest 10 day(s).

<< 84 85 86 87 88 89 90 >>
Time Temp. Humidity Pressure Rain* Wind** Luminosity Snow
1788006622 21.11° C 91% 1026 hPa 0 mm - 152 W/m² -
1788006317 21.11° C 91% 1025.9 hPa 0 mm - 99 W/m² -
1788006016 20.56° C 92% 1025.8 hPa 0 mm - 87 W/m² -
1788005711 20.56° C 93% 1025.8 hPa 0 mm - 74 W/m² -
1788005418 20.56° C 94% 1025.6 hPa 0 mm - 56 W/m² -
1788005104 20.56° C 94% 1025.9 hPa 0 mm - 53 W/m² -
1788004804 20° C 94% 1025.8 hPa 0 mm - 48 W/m² -
1788004498 20° C 94% 1025.7 hPa 0 mm - 46 W/m² -
1788004197 20° C 94% 1025.7 hPa 0 mm - 31 W/m² -
1788003896 20° C 94% 1025.5 hPa 0 mm - 33 W/m² -
1788003591 20° C 94% 1025.8 hPa 0 mm - 33 W/m² -
1788003285 20° C 94% 1025.6 hPa 0 mm - 28 W/m² -
1788002980 20° C 95% 1025.6 hPa 0 mm - 12 W/m² -
1788002674 20° C 95% 1025.6 hPa 0 mm - 11 W/m² -
1788002370 20° C 95% 1025.3 hPa 0 mm - 10 W/m² -
1788001764 20° C 94% 1025.2 hPa 0 mm - 8 W/m² -
1788000850 20° C 95% 1025.2 hPa 0 mm - 0 W/m² -
1788000545 20° C 95% 1024.9 hPa 0 mm - 0 W/m² -
1787999934 20° C 95% 1024.9 hPa 0 mm - 0 W/m² -
1787999632 20° C 95% 1024.8 hPa 0 mm - 0 W/m² -
1787999328 20° C 95% 1024.8 hPa 0 mm - 0 W/m² -
1787999027 20° C 95% 1024.8 hPa 0 mm - 0 W/m² -
1787998725 20° C 95% 1024.9 hPa 0 mm - 0 W/m² -
1787998420 20° C 95% 1024.8 hPa 0 mm - 0 W/m² -
1787998116 20° C 95% 1024.5 hPa 0 mm - 0 W/m² -

* Rain latest hour (hover to see other rain measurements)
** Current wind speed in m/s (hover to see current wind gust speed)